X  Close Mulighed for let støvregn i aften.
Conditions Temperature Feels Precipitation Wind Wind Direction UV index Pressure
11:00 cloudy Overskyet 19° - 6-8 m/s SSE SSE uv-3 1013,1
12:00 cloudy Overskyet 19° 0.01 mm 8% 6-9 m/s SE SE uv-3 1013,0
13:00 cloudy Overskyet 19° 0.08 mm 22% 6-9 m/s SSE SSE uv-3 1012,7
14:00 cloudy Overskyet 19° 0.14 mm 28% 6-9 m/s SE SE uv-3 1012,4
15:00 cloudy Overskyet 20° 0.08 mm 22% 6-10 m/s SE SE uv-3 1011,9
16:00 partly-cloudy-day Skyet 20° 0.01 mm 11% 7-10 m/s SE SE uv-3 1011,4
17:00 partly-cloudy-day Skyet 21° - 7-11 m/s SE SE uv-2 1010,9
18:00 partly-cloudy-day Skyet 21° - 8-12 m/s SE SE uv-1 1010,2
19:00 partly-cloudy-day Skyet 21° - 8-14 m/s SE SE uv-1 1009,5
20:00 cloudy Overskyet 21° 0.01 mm 9% 9-15 m/s SE SE - 1009,0
21:00 cloudy Overskyet 20° 0.04 mm 14% 8-14 m/s SSE SSE - 1008,7
22:00 cloudy Overskyet 19° 0.16 mm 20% 8-12 m/s SSE SSE - 1008,6
23:00 cloudy Overskyet 19° 0.25 mm 22% 8-10 m/s South South - 1008,6
00:00 cloudy Overskyet 18° 0.17 mm 20% 7-9 m/s South South - 1008,6
01:00 cloudy Overskyet 17° 0.08 mm 21% 5-7 m/s South South - 1008,6
02:00 cloudy Overskyet 16° 0.06 mm 21% 4-6 m/s South South - 1008,7
03:00 cloudy Overskyet 16° 0.04 mm 16% 4-5 m/s SSW SSW - 1008,7
04:00 cloudy Overskyet 16° 0.02 mm 10% 3-4 m/s SSW SSW - 1008,7
05:00 cloudy Overskyet 16° 0.01 mm 9% 3-3 m/s SW SW - 1008,8
06:00 cloudy Overskyet 16° 0.01 mm 10% 3-3 m/s SW SW - 1008,9
07:00 partly-cloudy-day Skyet 16° 0.02 mm 14% 3-3 m/s SW SW - 1009,0
08:00 partly-cloudy-day Skyet 17° 0.04 mm 19% 3-4 m/s SW SW uv-1 1009,2
09:00 partly-cloudy-day Skyet 18° 0.06 mm 21% 2-4 m/s SW SW uv-1 1009,5
10:00 partly-cloudy-day Skyet 18° 0.09 mm 19% 2-4 m/s SSW SSW uv-2 1009,9
11:00 partly-cloudy-day Skyet 19° 0.14 mm 24% 2-4 m/s SSW SSW uv-3 1010,3
12:00 rain Mulighed for lette regnbyger 20° 0.51 mm 47% 3-5 m/s SW SW uv-4 1010,5
13:00 rain Regnbyger 20° 1.65 mm 66% 3-5 m/s WSW WSW uv-4 1010,8
14:00 rain Regnbyger 20° 2.49 mm 70% 3-6 m/s WSW WSW uv-4 1011,1
15:00 rain Regnbyger 20° 1.65 mm 71% 4-7 m/s SSE SSE uv-3 1011,6
16:00 rain Mulighed for lette regnbyger 19° 0.63 mm 59% 5-8 m/s NNW NNW uv-3 1012,2
17:00 rain Mulighed for let støvregn 18° 0.38 mm 48% 6-10 m/s West West uv-2 1012,7
18:00 rain Mulighed for let støvregn 18° 0.24 mm 32% 7-11 m/s NNW NNW uv-1 1013,0
19:00 partly-cloudy-day Skyet 17° 0.08 mm 6% 8-13 m/s SSE SSE uv-1 1013,3
20:00 partly-cloudy-day Let skyet 17° 0.03 mm 2% 9-15 m/s West West - 1013,7
21:00 partly-cloudy-day Let skyet 16° 0.01 mm 1% 9-15 m/s West West - 1014,2
22:00 clear-night Klart 15° 0.01 mm 1% 9-16 m/s West West - 1014,7
23:00 clear-night Klart 15° 0.01 mm 1% 9-16 m/s West West - 1015,1
00:00 clear-night Klart 15° - 9-16 m/s West West - 1015,3
01:00 clear-night Klart 15° - 9-15 m/s West West - 1015,5
02:00 clear-night Klart 14° - 9-15 m/s West West - 1015,6
03:00 clear-night Klart 14° - 9-14 m/s West West - 1015,8
04:00 clear-night Klart 14° - 9-14 m/s West West - 1016,1
05:00 clear-night Klart 14° 0.01 mm 1% 8-14 m/s West West - 1016,3
06:00 partly-cloudy-day Let skyet 15° - 8-13 m/s West West - 1016,4
07:00 partly-cloudy-day Let skyet 15° - 8-12 m/s West West - 1016,5
08:00 partly-cloudy-day Skyet 16° - 8-12 m/s West West uv-1 1016,6
09:00 partly-cloudy-day Skyet 17° - 7-11 m/s WSW WSW uv-2 1016,9
10:00 cloudy Overskyet 18° - 7-10 m/s WSW WSW uv-2 1017,2
11:00 cloudy Overskyet 20° - 6-9 m/s WSW WSW uv-3 1017,4